TimePDT,TemperatureF,Dew PointF,Humidity,Sea Level PressureIn,VisibilityMPH,Wind Direction,Wind SpeedMPH,Gust SpeedMPH,PrecipitationIn,Events,Conditions,WindDirDegrees,DateUTC
12:35 AM,51.8,48.2,88,30.12,10.0,Calm,Calm,-,N/A,,Clear,0,2012-09-24 07:35:00
12:55 AM,53.6,48.2,82,30.13,10.0,Calm,Calm,-,N/A,,Clear,0,2012-09-24 07:55:00
1:15 AM,51.8,46.4,82,30.13,10.0,Calm,Calm,-,N/A,,Clear,0,2012-09-24 08:15:00
1:35 AM,50.0,46.4,87,30.13,10.0,Calm,Calm,-,N/A,,Clear,0,2012-09-24 08:35:00
1:55 AM,50.0,46.4,87,30.13,10.0,Calm,Calm,-,N/A,,Clear,0,2012-09-24 08:55:00
2:15 AM,51.8,46.4,82,30.13,10.0,Calm,Calm,-,N/A,,Clear,0,2012-09-24 09:15:00
2:35 AM,50.0,46.4,87,30.12,10.0,Calm,Calm,-,N/A,,Clear,0,2012-09-24 09:35:00
2:55 AM,48.2,46.4,93,30.13,10.0,Calm,Calm,-,N/A,,Clear,0,2012-09-24 09:55:00
3:15 AM,48.2,44.6,87,30.13,10.0,Calm,Calm,-,N/A,,Clear,0,2012-09-24 10:15:00
3:35 AM,48.2,44.6,87,30.13,10.0,Calm,Calm,-,N/A,,Clear,0,2012-09-24 10:35:00
3:55 AM,48.2,44.6,87,30.13,10.0,Calm,Calm,-,N/A,,Clear,0,2012-09-24 10:55:00
4:15 AM,48.2,44.6,87,30.13,10.0,NW,3.5,-,N/A,,Clear,310,2012-09-24 11:15:00
4:35 AM,48.2,44.6,87,30.13,10.0,Calm,Calm,-,N/A,,Clear,0,2012-09-24 11:35:00
4:55 AM,48.2,44.6,87,30.13,10.0,Calm,Calm,-,N/A,,Clear,0,2012-09-24 11:55:00
5:15 AM,46.4,44.6,93,30.13,10.0,Calm,Calm,-,N/A,,Clear,0,2012-09-24 12:15:00
5:35 AM,46.4,44.6,93,30.13,10.0,Calm,Calm,-,N/A,,Partly Cloudy,0,2012-09-24 12:35:00
5:55 AM,48.2,44.6,87,30.13,10.0,Calm,Calm,-,N/A,,Mostly Cloudy,0,2012-09-24 12:55:00
6:15 AM,46.4,44.6,93,30.14,10.0,Calm,Calm,-,N/A,,Mostly Cloudy,0,2012-09-24 13:15:00
6:35 AM,46.4,44.6,93,30.14,10.0,Calm,Calm,-,N/A,,Overcast,0,2012-09-24 13:35:00
6:55 AM,46.4,44.6,93,30.14,10.0,Calm,Calm,-,N/A,,Overcast,0,2012-09-24 13:55:00
7:15 AM,48.2,44.6,87,30.15,10.0,Calm,Calm,-,N/A,,Overcast,0,2012-09-24 14:15:00
7:35 AM,48.2,44.6,87,30.15,10.0,Calm,Calm,-,N/A,,Overcast,0,2012-09-24 14:35:00
7:55 AM,48.2,44.6,87,30.15,10.0,Calm,Calm,-,N/A,,Overcast,0,2012-09-24 14:55:00
8:15 AM,50.0,44.6,82,30.16,10.0,Calm,Calm,-,N/A,,Overcast,0,2012-09-24 15:15:00
8:35 AM,51.8,46.4,82,30.16,10.0,Calm,Calm,-,N/A,,Overcast,0,2012-09-24 15:35:00
8:55 AM,51.8,48.2,88,30.16,9.0,Calm,Calm,-,N/A,,Overcast,0,2012-09-24 15:55:00
9:15 AM,51.8,48.2,88,30.15,2.5,Calm,Calm,-,N/A,,Overcast,0,2012-09-24 16:15:00
9:35 AM,51.8,48.2,88,30.16,4.0,Calm,Calm,-,N/A,,Overcast,0,2012-09-24 16:35:00
9:55 AM,51.8,48.2,88,30.16,7.0,Calm,Calm,-,N/A,,Overcast,0,2012-09-24 16:55:00
10:15 AM,53.6,48.2,82,30.16,7.0,Calm,Calm,-,N/A,,Overcast,0,2012-09-24 17:15:00
10:35 AM,55.4,48.2,77,30.17,10.0,Calm,Calm,-,N/A,,Mostly Cloudy,0,2012-09-24 17:35:00
10:55 AM,57.2,50.0,77,30.16,10.0,Calm,Calm,-,N/A,,Partly Cloudy,0,2012-09-24 17:55:00
11:15 AM,57.2,50.0,77,30.15,10.0,Calm,Calm,-,N/A,,Clear,0,2012-09-24 18:15:00
11:35 AM,60.8,50.0,68,30.14,9.0,Calm,Calm,-,N/A,,Clear,0,2012-09-24 18:35:00
11:55 AM,60.8,50.0,68,30.14,10.0,WSW,3.5,-,N/A,,Clear,250,2012-09-24 18:55:00
12:15 PM,62.6,51.8,68,30.14,10.0,Calm,Calm,-,N/A,,Clear,0,2012-09-24 19:15:00
12:35 PM,62.6,51.8,68,30.13,10.0,Calm,Calm,-,N/A,,Clear,0,2012-09-24 19:35:00
12:55 PM,64.4,51.8,64,30.12,10.0,West,4.6,-,N/A,,Clear,260,2012-09-24 19:55:00
1:15 PM,64.4,51.8,64,30.12,10.0,NW,5.8,-,N/A,,Clear,320,2012-09-24 20:15:00
1:35 PM,66.2,51.8,60,30.11,10.0,NW,4.6,-,N/A,,Clear,310,2012-09-24 20:35:00
1:55 PM,68.0,51.8,56,30.11,10.0,WNW,3.5,-,N/A,,Clear,290,2012-09-24 20:55:00
2:15 PM,69.8,51.8,53,30.10,10.0,NW,3.5,-,N/A,,Clear,320,2012-09-24 21:15:00
2:35 PM,68.0,51.8,56,30.10,10.0,Calm,Calm,-,N/A,,Clear,0,2012-09-24 21:35:00
2:55 PM,69.8,51.8,53,30.09,10.0,WSW,4.6,-,N/A,,Clear,240,2012-09-24 21:55:00
3:15 PM,69.8,53.6,56,30.09,10.0,WSW,4.6,-,N/A,,Clear,250,2012-09-24 22:15:00
3:35 PM,69.8,53.6,56,30.08,10.0,WNW,4.6,-,N/A,,Clear,290,2012-09-24 22:35:00
3:55 PM,69.8,53.6,56,30.08,10.0,Calm,Calm,-,N/A,,Clear,0,2012-09-24 22:55:00
4:15 PM,69.8,53.6,56,30.08,10.0,Calm,Calm,-,N/A,,Clear,0,2012-09-24 23:15:00
4:35 PM,69.8,53.6,56,30.08,10.0,WNW,4.6,-,N/A,,Clear,300,2012-09-24 23:35:00
4:55 PM,69.8,53.6,56,30.08,10.0,WNW,5.8,-,N/A,,Clear,300,2012-09-24 23:55:00
5:15 PM,69.8,53.6,56,30.08,10.0,West,8.1,-,N/A,,Clear,280,2012-09-25 00:15:00
5:35 PM,69.8,53.6,56,30.08,10.0,WNW,5.8,-,N/A,,Clear,290,2012-09-25 00:35:00
5:55 PM,68.0,53.6,60,30.09,10.0,NW,3.5,-,N/A,,Scattered Clouds,310,2012-09-25 00:55:00
6:15 PM,66.2,51.8,60,30.09,10.0,NW,5.8,-,N/A,,Mostly Cloudy,310,2012-09-25 01:15:00
6:35 PM,66.2,53.6,64,30.09,10.0,Calm,Calm,-,N/A,,Overcast,0,2012-09-25 01:35:00
6:55 PM,66.2,53.6,64,30.09,10.0,Calm,Calm,-,N/A,,Mostly Cloudy,0,2012-09-25 01:55:00
7:15 PM,64.4,53.6,68,30.09,10.0,NW,3.5,-,N/A,,Scattered Clouds,310,2012-09-25 02:15:00
7:35 PM,64.4,53.6,68,30.09,10.0,Calm,Calm,-,N/A,,Scattered Clouds,0,2012-09-25 02:35:00
7:55 PM,62.6,53.6,72,30.10,10.0,Calm,Calm,-,N/A,,Clear,0,2012-09-25 02:55:00
8:15 PM,62.6,53.6,72,30.11,10.0,Calm,Calm,-,N/A,,Mostly Cloudy,0,2012-09-25 03:15:00
8:35 PM,62.6,53.6,72,30.11,10.0,NW,4.6,-,N/A,,Overcast,320,2012-09-25 03:35:00
8:55 PM,62.6,53.6,72,30.12,10.0,Calm,Calm,-,N/A,,Overcast,0,2012-09-25 03:55:00
9:35 PM,60.8,53.6,77,30.12,10.0,Calm,Calm,-,N/A,,Mostly Cloudy,0,2012-09-25 04:35:00
9:55 PM,60.8,53.6,77,30.12,10.0,Calm,Calm,-,N/A,,Mostly Cloudy,0,2012-09-25 04:55:00
10:15 PM,59.0,53.6,82,30.12,10.0,Calm,Calm,-,N/A,,Mostly Cloudy,0,2012-09-25 05:15:00
10:35 PM,60.8,53.6,77,30.12,10.0,Calm,Calm,-,N/A,,Overcast,0,2012-09-25 05:35:00
10:55 PM,60.8,53.6,77,30.12,10.0,Calm,Calm,-,N/A,,Overcast,0,2012-09-25 05:55:00
11:15 PM,60.8,53.6,77,30.12,10.0,NNW,3.5,-,N/A,,Overcast,330,2012-09-25 06:15:00
11:35 PM,60.8,53.6,77,30.12,10.0,WNW,4.6,-,N/A,,Overcast,300,2012-09-25 06:35:00
11:55 PM,60.8,53.6,77,30.12,10.0,Calm,Calm,-,N/A,,Overcast,0,2012-09-25 06:55:00